RH
68 68 56 43 35 32 30 28 26 20 27 21 26 30 21 40 48 74 71 100 100 80 97 90 56 78 62 22 20 28 22 22 31 45 77 94 100 100 100 100 100 100 100 100
62 65 62 40 31 28 29 25 22 23 24 24 29 48 32 41 68 100 99 100 100 87 93 80 54 90 56 23 24 29 30 29 22 25 42 91 99 100 100 100 100 100 100 100
71 56 45 38 32 24 24 21 20 29 18 32 33 48 49 48 92 100 99 100 98 98 83 68 79 66 35 23 25 36 32 33 29 21 26 42 75 97 100 100 100 100 100 100
62 43 38 42 32 20 23 18 18 30 20 42 39 51 46 57 100 100 100 100 90 94 74 70 58 52 46 24 25 23 31 32 31 28 20 29 53 65 73 90 100 100 100 100
57 43 39 46 30 26 31 18 31 33 30 40 50 64 82 48 100 100 100 100 96 99 95 64 68 60 46 31 27 21 19 25 32 28 26 19 27 46 58 68 100 100 100 100
50 43 51 48 34 60 33 55 76 52 38 42 67 93 86 74 100 100 100 100 90 96 99 72 98 74 59 39 31 27 20 18 27 34 29 24 20 26 38 69 70 96 97 100
54 52 53 46 43 85 80 100 93 80 40 92 87 100 100 100 100 100 100 100 100 96 100 86 75 83 81 53 39 34 23 18 19 27 37 32 26 27 41 59 61 77 92 94
64 47 66 45 81 90 100 100 96 73 58 100 73 96 100 99 82 100 100 100 100 100 81 69 81 93 98 60 45 55 27 23 22 20 30 38 36 29 25 35 61 62 54 76
68 57 58 56 100 100 100 100 100 100 73 100 69 100 100 81 87 100 100 100 100 82 91 82 76 87 88 57 51 51 59 26 26 21 21 22 30 35 33 24 25 38 63 66
59 65 58 74 100 100 99 100 100 93 74 100 84 100 100 91 73 75 92 100 100 96 100 98 86 97 92 64 60 47 79 52 29 24 29 24 23 26 38 35 29 23 29 41
54 60 64 97 95 100 100 100 100 100 94 100 100 100 100 100 83 58 73 100 100 100 100 100 100 100 89 66 61 54 64 77 50 29 30 29 25 21 23 31 31 35 31 25
53 53 57 98 94 98 100 100 100 96 91 100 100 100 100 100 82 62 83 100 100 100 100 100 100 99 99 74 42 35 64 65 88 65 42 28 34 31 24 24 19 21 30 36
66 54 54 86 100 100 100 100 100 100 100 87 100 100 100 100 86 72 59 86 100 100 100 100 100 100 100 100 84 60 72 75 92 84 81 64 49 56 37 32 30 24 24 23
51 62 52 69 99 82 96 100 100 100 100 100 82 100 100 100 100 83 66 73 100 100 100 100 100 100 100 100 100 100 100 100 98 81 58 60 96 84 73 56 47 41 36 34
41 61 53 56 99 96 98 99 100 100 100 100 100 90 100 100 100 100 97 79 70 94 95 100 100 99 100 100 100 100 100 78 63 65 65 53 60 59 63 63 75 72 59 48
41 50 47 48 95 100 100 100 100 100 100 100 100 100 90 100 100 100 100 100 60 65 77 77 98 100 89 100 100 100 97 100 100 95 73 66 47 50 57 71 69 84 81 82
38 37 41 42 88 100 100 100 100 91 100 100 100 100 91 99 100 100 100 100 94 69 63 74 100 100 100 100 100 100 100 98 95 84 79 76 70 73 74 77 57 49 63 93
38 33 40 53 100 100 99 99 87 91 100 100 100 100 100 100 98 86 100 100 100 94 82 70 58 76 85 79 97 100 98 90 82 81 85 93 93 94 100 100 96 90 81 86
39 33 39 64 100 100 91 100 100 91 88 100 100 100 100 100 100 100 100 100 100 100 97 93 75 54 72 84 97 100 100 94 79 65 73 78 91 100 100 100 100 100 100 99
42 39 36 65 100 100 85 94 100 83 86 100 100 100 100 100 100 100 100 100 100 100 100 92 87 89 100 85 88 85 83 85 81 78 73 72 65 77 92 100 94 72 80 100
34 38 38 53 100 100 99 77 95 100 100 100 100 100 100 98 100 100 100 100 98 99 98 94 89 100 100 100 100 99 85 71 71 72 70 66 64 59 61 77 88 89 99 100
30 39 38 38 100 100 100 79 81 91 94 100 100 100 100 100 100 100 100 100 95 64 55 64 83 87 86 91 85 83 89 92 91 86 66 68 71 70 67 68 79 91 95 95
27 30 34 36 81 100 100 100 78 88 100 100 100 100 100 100 100 100 100 92 93 93 99 100 90 82 63 70 76 97 97 74 75 76 63 57 72 86 94 81 59 86 87 91
23 25 28 30 32 98 100 100 96 73 91 97 84 100 100 100 100 76 88 100 100 100 100 97 92 90 86 77 73 69 60 67 69 75 71 66 51 68 55 68 100 88 100 100
25 23 22 24 25 36 99 100 100 100 91 80 77 83 100 86 68 85 100 100 100 100 100 100 90 87 86 86 74 66 76 72 77 57 58 60 47 82 93 97 100 100 100 100
23 23 21 23 25 28 36 100 100 100 100 100 81 76 83 100 95 81 73 73 67 66 77 81 83 95 91 79 95 99 91 78 70 91 85 100 100 100 100 100 100 100 100 100
Wind_Speed
71 72 76 75 77 68 63 57 49 45 50 38 43 53 43 41 38 34 30 28 31 29 30 28 23 18 18 18 21 16 15 10 17 37 41 43 48 50 45 47 55 56 57 54
71 70 75 74 73 63 52 49 47 45 44 40 44 51 45 43 38 32 30 28 32 29 30 28 22 19 18 16 18 14 12 11 11 17 37 43 46 50 51 50 50 52 52 56
70 76 76 71 61 53 48 49 48 42 42 41 47 51 42 43 33 33 31 30 30 32 31 25 18 15 14 12 14 15 14 14 13 13 17 45 48 53 53 50 54 54 54 56
74 74 71 63 51 42 46 50 40 41 44 45 50 48 44 43 30 32 30 27 27 32 31 25 19 13 12 11 10 13 16 17 17 14 13 21 51 53 51 54 56 54 46 50
78 75 65 47 44 39 41 37 35 43 45 51 50 45 43 44 24 35 35 30 29 33 35 28 23 17 13 15 13 12 13 15 18 18 16 15 24 52 54 50 58 60 57 53
76 67 44 38 37 29 29 29 39 43 45 49 47 42 44 42 34 35 39 32 29 31 36 33 31 27 20 18 15 14 14 13 16 18 20 18 12 26 43 57 51 62 61 60
62 48 36 34 32 31 34 37 45 49 49 51 53 44 41 38 40 37 39 38 31 32 37 35 31 28 28 21 20 18 14 10 13 15 17 21 17 14 23 36 52 50 61 61
54 35 36 32 31 34 34 42 47 51 52 52 53 40 30 44 41 36 37 42 40 31 33 35 33 29 27 25 23 21 16 13 12 13 15 18 18 18 15 24 36 51 50 64
50 36 38 34 39 43 46 44 46 51 57 49 53 42 38 46 42 37 35 42 41 35 27 29 28 31 31 27 29 24 21 16 13 10 10 13 18 18 18 16 20 33 47 60
47 40 40 38 46 50 50 51 49 52 57 50 49 49 46 45 43 45 34 29 36 33 31 31 32 32 32 30 32 27 22 22 17 14 14 13 15 18 20 19 19 18 24 31
45 40 41 44 51 53 50 56 52 51 59 50 44 48 43 44 46 45 35 29 30 38 38 39 35 33 33 33 34 30 22 23 23 19 16 16 14 15 17 21 22 22 22 21
48 44 46 50 54 54 56 56 53 56 59 53 46 47 41 42 42 43 37 29 31 34 41 41 38 37 36 35 36 36 32 29 28 28 25 20 19 19 18 18 18 24 25 26
55 46 50 55 61 57 62 60 56 53 54 55 48 42 42 40 40 43 44 40 38 37 30 37 39 39 38 34 35 38 36 34 31 29 30 31 29 25 24 24 23 22 25 23
51 50 56 58 67 60 65 65 59 61 53 50 53 48 35 43 39 39 42 44 42 42 42 38 36 39 39 39 38 36 37 37 37 34 32 29 26 27 29 31 32 30 28 27
49 54 61 60 71 67 59 67 66 55 61 52 53 59 41 47 47 45 42 45 49 44 43 41 40 41 41 43 43 44 42 43 42 41 37 30 31 33 34 34 37 35 39 36
54 59 65 63 74 73 66 63 68 60 60 59 60 56 55 51 49 48 43 44 50 49 46 45 42 44 44 45 47 47 47 43 43 43 43 42 44 39 39 38 40 41 40 43
57 61 64 65 76 79 73 72 69 67 67 60 58 59 62 59 53 51 51 56 47 48 46 47 48 43 43 46 49 49 48 48 48 47 46 47 48 47 44 45 45 46 45 44
56 63 65 68 74 78 78 73 73 67 66 60 63 65 64 55 54 57 54 53 50 49 51 53 52 51 49 48 50 51 51 52 50 50 52 52 52 53 52 51 53 54 53 52
56 62 66 72 78 77 79 76 71 69 74 66 69 71 69 59 63 65 62 57 56 54 53 52 50 49 50 52 53 52 51 52 52 52 53 55 57 58 56 56 57 60 63 63
55 61 66 74 78 79 79 73 76 73 66 64 69 64 68 69 64 67 71 66 63 60 56 55 54 53 55 56 57 59 59 59 59 60 60 60 60 58 58 60 62 64 63 67
56 62 67 75 82 79 80 77 77 79 74 68 66 67 68 66 69 72 73 69 68 65 63 60 57 58 59 59 60 62 63 62 63 63 62 62 62 63 63 65 67 66 67 70
55 59 68 70 83 78 82 80 78 80 79 72 71 72 73 73 74 74 73 71 70 70 68 65 64 64 64 65 66 66 65 65 67 66 66 66 65 65 65 65 66 66 67 67
52 60 64 70 84 86 85 83 79 79 79 77 76 78 78 78 78 75 74 73 71 71 68 70 71 70 68 68 67 67 70 72 71 71 71 70 72 70 68 67 66 67 69 72
50 53 56 64 70 87 82 77 79 84 77 84 81 76 81 79 78 76 77 76 75 74 75 77 77 76 76 74 75 77 79 77 75 76 81 78 74 75 73 73 74 76 77 77
47 54 57 61 68 71 90 84 77 78 84 84 84 82 78 80 80 75 76 79 80 82 81 79 76 75 76 80 80 80 81 82 85 82 78 77 77 76 80 82 83 83 87 93
48 50 51 56 60 72 77 95 89 86 83 81 84 84 88 83 79 80 81 82 83 83 83 82 81 82 84 86 87 89 90 92 88 83 83 82 83 82 82 88 92 95 99 102
Wind_Direction
276 278 280 284 287 292 291 280 275 271 260 242 214 207 211 187 190 197 198 209 226 230 232 236 241 261 285 297 298 298 326 336 256 241 236 229 226 223 226 225 222 224 229 233
276 279 282 287 292 292 283 274 271 262 246 224 205 202 202 187 186 200 200 207 226 229 232 231 240 251 269 296 298 290 312 338 325 277 243 237 229 225 226 226 225 224 234 239
276 277 282 289 291 285 277 272 265 247 240 207 192 197 196 185 185 202 205 210 221 227 231 229 235 238 255 285 298 293 301 311 326 321 274 235 236 232 226 231 231 235 237 240
275 281 285 291 280 274 272 264 251 230 220 197 191 197 189 183 187 203 210 213 221 234 230 224 235 237 254 268 304 305 299 303 312 320 309 248 235 238 242 237 233 237 237 240
278 282 288 276 275 278 268 253 228 214 205 198 187 191 190 187 180 199 216 215 218 228 235 218 232 248 248 259 280 308 314 307 303 311 324 296 248 235 238 242 236 238 241 243
281 281 276 262 263 263 247 225 212 208 198 193 187 183 195 186 194 205 207 213 215 226 234 229 234 245 252 256 270 285 303 322 311 310 323 330 278 247 240 240 240 240 245 246
277 277 261 250 258 237 230 218 206 201 191 181 185 182 196 201 200 204 209 212 215 221 231 237 235 241 247 258 259 268 280 310 323 313 311 323 337 300 259 240 236 241 241 245
269 264 247 240 235 213 207 202 203 199 185 190 187 177 202 209 198 198 209 211 217 222 234 235 235 239 247 253 255 256 264 283 312 324 307 305 318 329 313 265 248 241 243 243
264 260 231 232 216 206 202 198 203 197 185 189 190 185 200 217 199 203 211 219 219 223 233 238 240 242 244 245 254 257 257 264 282 296 316 304 295 301 310 310 277 259 253 248
259 249 227 225 213 209 204 203 203 198 190 191 197 195 207 214 213 211 205 219 228 228 233 239 241 241 240 241 249 253 260 253 264 275 296 302 306 291 285 298 308 302 272 262
247 242 219 220 214 207 207 205 206 201 194 192 198 203 208 216 217 213 206 209 215 227 229 234 237 240 241 242 245 253 257 258 261 256 273 284 295 300 295 289 293 295 303 299
244 230 217 217 216 210 207 201 207 203 200 200 204 208 209 221 218 217 211 210 208 215 228 237 239 243 246 248 246 254 257 261 268 252 259 263 275 289 290 297 306 315 293 291
236 229 220 217 213 210 209 202 205 199 208 208 204 203 215 226 224 221 216 217 227 228 229 235 242 244 248 253 253 252 258 263 259 255 250 259 261 266 273 279 284 288 304 299
228 225 221 216 213 212 209 206 206 205 201 210 215 208 221 224 232 233 227 224 227 235 238 241 242 247 252 251 253 255 256 259 257 256 259 265 270 269 266 271 274 275 279 289
223 217 218 216 213 209 209 209 204 209 206 207 213 216 202 229 237 234 233 230 229 232 238 241 242 244 246 247 251 254 255 258 260 260 258 260 267 275 276 279 282 279 279 274
218 213 215 215 212 209 210 210 208 208 211 214 219 218 208 214 230 241 243 236 235 232 233 240 243 246 247 247 249 252 253 253 255 258 261 263 267 272 273 270 275 279 277 274
218 214 215 215 211 210 214 213 215 212 212 216 218 219 217 217 221 223 224 242 238 235 235 234 237 240 243 245 247 249 251 253 255 259 264 267 268 271 272 270 272 277 277 275
214 212 215 214 210 212 214 213 212 215 213 214 220 217 218 221 232 227 227 240 246 239 235 237 238 239 247 252 252 250 252 253 257 261 264 266 268 270 271 269 274 277 277 272
214 214 213 210 208 212 215 214 214 217 215 215 217 218 218 222 231 237 235 235 242 247 244 242 243 245 246 247 248 251 251 253 256 259 261 264 266 266 266 268 269 273 273 272
215 215 213 210 205 213 215 213 213 213 211 216 220 220 218 223 229 234 238 235 241 246 248 247 246 247 248 249 250 250 251 253 255 257 258 260 261 262 263 265 267 269 271 272
213 215 213 211 207 210 217 217 214 212 218 221 225 225 229 227 232 235 240 239 240 245 247 247 245 246 249 251 254 257 260 262 262 263 264 264 263 263 263 265 268 270 269 268
214 212 213 214 207 208 217 218 214 215 219 222 226 229 229 230 232 233 241 246 245 246 248 251 252 252 254 256 258 259 261 265 267 266 266 265 264 264 264 262 263 266 266 268
214 213 213 215 209 210 216 218 219 218 222 222 226 229 230 230 230 235 241 245 248 250 251 254 255 255 256 260 261 260 264 269 267 268 268 268 269 269 267 268 270 271 269 271
216 215 217 217 219 211 216 220 225 224 225 226 225 229 232 234 237 240 243 248 250 250 251 253 255 256 258 260 261 263 265 267 268 270 272 272 273 269 270 270 271 273 272 268
219 218 217 219 219 218 218 218 220 225 230 230 233 229 236 239 238 240 242 243 247 251 253 255 257 258 259 260 264 266 267 269 272 273 272 271 273 273 273 274 274 274 275 278
220 222 219 218 219 220 220 219 218 224 227 231 235 236 235 236 239 241 242 243 247 251 254 256 257 258 260 264 264 266 268 270 273 270 272 273 274 273 273 276 278 277 277 279